User: anonymous   Login
Location: Unspecified
(42.3650°N, 71.1030°W)
Time: 00:22:43
(UTC+00:00)
Language:

A-11 Canister half - Orbit

View from above orbital plane
View from above orbital plane
View from above satellite
View from above satellite

Ground track
Ground track

The orbit data is extracted from the following two-line orbital elements,

1 00053U 60009E   24167.00708910 -.00000035  00000-0  50324-3 0  9994
2 00053  47.2777  80.7865 0099455  70.5995 290.5512 12.17336506846236
Epoch (UTC): 15 June 2024 00:10:12
Eccentricity: 0.0099455
inclination: 47.2777°
perigee height: 1525 km
apogee height: 1683 km
right ascension of ascending node: 80.7865°
argument of perigee: 70.5995°
revolutions per day: 12.17336506
mean anomaly at epoch: 290.5512°
orbit number at epoch: 84623

The dashed part of the orbit path shows where the satellite is in the earth's shadow,  

DLR